Hourly Weather Roundup
Issued by NWS Central Illinois

Home | Current Version | Previous Version | Text Only | Print | Product List | Glossary On
Versions: 1 2 3 4 5 6 7 8 9 10 11 12 13 14 15 16 17 18 19 20 21 22 23 24 25 26 27 28 29 30 31 32 33 34 35 36 37 38 39 40 41 42 43 44 45 46 47 48 49 50
680
NZUS43 KILX 221310
HWRILX

AREA WEATHER ROUNDUP
NATIONAL WEATHER SERVICE, LINCOLN IL
700 AM CST WED FEB 22 2017


CITY           SKY/WX    TMP DP  RH WIND       PRES   REMARKS
BLOOMINGTON    FOG       48  48 100 S7        29.85F VSB 1/8
CHAMPAIGN      FOG       46  45  96 S6        29.86F VSB<1/4
DECATUR        FOG       46  46 100 S3        29.86F VSB<1/4
EFFINGHAM      FOG       46  46 100 CALM      29.91S VSB<1/4
FLORA          FOG       45  45  99 CALM      29.90R VSB<1/4
GALESBURG      DRZL/FOG  51  51 100 S9        29.80S VSB<1/4
JACKSONVILLE   FOG       50  50 100 S8        29.83F VSB<1/4
LACON          FOG       54  54 100 S7        29.80F VSB 1
LAWRENCEVILLE  FOG       48  48 100 S6        29.90R VSB<1/4
LITCHFIELD     FOG       45  45 100 S5        29.87S VSB<1/4
$$


CITY           SKY/WX    TMP DP  RH WIND       PRES   REMARKS
LINCOLN        FOG       46  46 100 CALM      29.84F VSB<1/4
MACOMB         FOG       52  52 100 S10       29.83F VSB 1/2
MATTOON        FOG       48  48 100 S7        29.87F VSB<1/4
MT CARMEL AP   FOG       46  46  97 CALM      29.89S VSB<1/4
OLNEY-NOBLE AP FOG       46  46 100 CALM      29.91R VSB<1/4
PARIS          FOG       49  49 100 CALM      29.89S VSB<1/4
PEORIA         FOG       53  53 100 S7        29.81F VSB 1/4
PONTIAC        FOG       48  48  99 S5        29.85S VSB<1/4
RANTOUL        FOG       46  46  99 S3        29.86F VSB<1/4
SPRINGFIELD    FOG       48  47  96 S6        29.85F VSB<1/4
TAYLORVILLE    FOG       47  47 100 S3        29.87S VSB<1/4
$$

...REGIONAL REPORTS...


CITY           SKY/WX    TMP DP  RH WIND       PRES   REMARKS
CHICAGO O`HARE FOG       53  52  96 SW10      29.79F VSB 1/2
KANKAKEE       FOG       47  46  97 CALM      29.85S VSB<1/4
MOLINE         FOG       54  52  93 SW10      29.77F VSB 1
MOUNT STERLING FOG       53  53 100 SW7       29.83S VSB 1/4
MOUNT VERNON   FOG       45  45 100 CALM      29.90R VSB<1/4
PITTSFIELD     FOG       54  54 100 S7        29.85S VSB 1/4
QUINCY         FOG       53  53 100 S13       29.82S VSB 1/4
ROCKFORD       FOG       51  50  96 SW5       29.80S VSB 1/8
$$


CITY           SKY/WX    TMP DP  RH WIND       PRES   REMARKS
BURLINGTON     FOG       53  53 100 SW10      29.78F VSB 1/4
CEDAR RAPIDS   FAIR      46  45  96 S14       29.71F
DES MOINES     FAIR      47  32  56 S9        29.70F
KIRKSVILLE     FAIR      51  50  96 SW8       29.80F FOG
OTTUMWA        FAIR      47  45  93 S12       29.74F
ST LOUIS       FOG       54  52  93 SW10      29.88S VSB 1/4
$$


CITY           SKY/WX    TMP DP  RH WIND       PRES   REMARKS
TERRE HAUTE    FOG       44  43  96 CALM      29.89S VSB<1/4
EVANSVILLE     CLOUDY    54  52  93 CALM      29.91R FOG
INDIANAPOLIS   MOCLDY    54  52  93 S5        29.89S FOG
LAFAYETTE      FOG       47  47 100 CALM      29.87F VSB<1/4
MADISON        FAIR      47  45  93 S7        29.72F FOG
MILWAUKEE      FOG       53  51  93 SW10      29.75F VSB 1/4
$$






USA.gov is the U.S. government's official web portal to all federal, state and local government web resources and services.